O3B FM13 (43234 NORAD) Tracking and Keplerian Element Data

This shows tracking and keplerian element data for the satellite.

Feedback or suggestion? Click here.




ElementValue
Catalog43234
NameO3B FM13
Epoch Orbit2200
Epoch Day143.4195346
Epoch Year2019
RAAN359.9752
Inclination0.0361
Eccentricity0.0005306
Argument of Perigee56.6971
Mean Anonmoly303.3785
Mean Motion5.00112982
Decay Rate-3E-07
L11 43234U 18024D 19143.41953460 -.00000030 00000-0 00000-0 0 9995
L22 43234 0.0361 359.9752 0005306 56.6971 303.3785 5.00112982 22007

Live tracking and technical data element details for O3B FM13 (NORAD 43234). O3B FM13 can be tracked NOW for your location showing map with azimuth and elevation plus other details from your city location.

Track the satellite on the map from your city or location and see movement details for azimuth, elevation, latitude, longitude, range, height, and movement on the map or in text.







IsCatalogInMostPopularTable: catalog: 43234, numindb: 171
Update: records affected: 1



GetName: 43234 O3B FM13

Hit Count: updated at: Fri, 24 May 2019 21:18:13 GMT